Home   Weather   Bruck an der Leitha   Past weeks

Flag for Austria Past Weather in Bruck an der Leitha, Lower Austria, Austria — Yesterday and Last 2 Weeks

Now
28 °F

Passing clouds.


Feels Like: N/A
Forecast: 21 / 35 °F
Wind: N/A

Location: Wien / Schwechat-Flughafen

Current Time: Dec 5, 2016 at 5:54:28 pm

Latest Report: Dec 5, 2016 at 5:00 pm


Visibility: 3 mi

Pressure: 30.43 "Hg

Humidity: 92%

Dew Point: 26 °F

Location of Bruck an der LeithaLocation

Past Weather in Bruck an der Leitha — Graph

°F

Bruck an der Leitha Temperature Yesterday

Maximum temperature yesterday: 33 °F (at 2:00 pm)
Minimum temperature yesterday: 19 °F (at 4:00 am)
Average temperature yesterday: 26 °F

High & Low Weather Summary for the Past Weeks

 TemperatureHumidityPressure
High60 °F (Nov 22, 2:00 pm)100% (Nov 24, 6:00 pm)30.56 "Hg (Nov 24, 6:00 pm)
Low19 °F (Dec 4, 4:00 am)37% (Nov 30, 1:00 pm)29.79 "Hg (Dec 2, 7:00 am)
Average40 °F79%30.18 "Hg
* Reported Nov 20 4:00 pm — Dec 5 4:00 pm, Bruck an der Leitha, Weather by CustomWeather, © 2016

Note: Actual official high and low records may vary slightly from our data, if they occured in-between our weather recording intervals... More about our weather records

Advertising

Bruck an der Leitha Weather History for the Previous 24 Hours

Scroll right to see more
 ConditionsComfort  
Time TempWeatherWind HumidityBarometerVisibility
4:00 pm
Mon, Dec 5
31 °FPassing clouds.N/A85%30.43 "Hg4 mi
3:00 pm35 °FPassing clouds.3 mph75%30.41 "Hg11 mi
2:00 pm36 °FScattered clouds.5 mph74%30.42 "Hg9 mi
1:00 pm35 °FScattered clouds.6 mph77%30.42 "Hg8 mi
12:00 pm34 °FScattered clouds.3 mph78%30.44 "Hg7 mi
11:00 am33 °FScattered clouds.5 mph83%30.45 "Hg7 mi
10:00 am31 °FScattered clouds.5 mph84%30.47 "Hg7 mi
9:00 am28 °FScattered clouds.6 mph87%30.47 "Hg7 mi
8:00 am26 °FScattered clouds.N/A89%30.46 "Hg6 mi
7:00 am26 °FPassing clouds.6 mph90%30.45 "Hg6 mi
6:00 am25 °FPassing clouds.6 mph91%30.46 "Hg4 mi
5:00 am26 °FPassing clouds.6 mph90%30.47 "Hg5 mi
4:00 am26 °FPassing clouds.6 mph90%30.47 "Hg5 mi
3:00 am28 °FPassing clouds.6 mph87%30.48 "Hg6 mi
2:00 am26 °FPassing clouds.5 mph90%30.49 "Hg6 mi
1:00 am27 °FPassing clouds.5 mph91%30.50 "Hg5 mi
12:00 am28 °FPassing clouds.5 mph89%30.50 "Hg5 mi
11:00 pm
Sun, Dec 4
28 °FPassing clouds.3 mph87%30.51 "Hg5 mi
10:00 pm27 °FPassing clouds.N/A90%30.51 "Hg6 mi
9:00 pm28 °FPassing clouds.N/A87%30.51 "Hg6 mi
8:00 pm27 °FPassing clouds.N/A94%30.50 "Hg4 mi
7:00 pm25 °FPassing clouds.N/A97%30.50 "Hg2 mi
6:00 pm26 °FPassing clouds.N/A95%30.50 "Hg4 mi
5:00 pm27 °FPassing clouds.N/A90%30.48 "Hg7 mi
Weather by CustomWeather, © 2016

See weather overviewHow to use our weather pages